[[{"header":{"parameterUnit":"m.s-1","parameterCategory":1,"la1":30.2991,"la2":30.254,"lo1":-89.0895,"lo2":-89.0444,"dy":0.0017,"dx":0.0017,"nx":28,"ny":28,"refTime":"2023-10-21T09:00:00:Z","depth":0,"parameterNumber":2,"parameterNumberName":"U-component_of_WINDS"},"data":[0,0,0,0,0,0,0,0,0,0,0,0,0,0,0,0,0,0,0,0,0,0,0,0,0,0,0,0,0,0,0,0,0,0,0,0,0,0,0,0,0,0,0,0,0,0,0,0,0,0,0,0,0,0,0,0,0,0,-0.2575,-0.2574,0,-0.2539,-0.2539,-0.2538,-0.2538,-0.2538,-0.2538,-0.2539,-0.2501,-0.25,-0.2499,0,0,0,0,0,0,0,0,0,0,0,0,0,-0.264,-0.2639,-0.2575,-0.2574,-0.2574,-0.2539,-0.2539,-0.2538,-0.2538,-0.2538,-0.2539,-0.2539,-0.2502,-0.25,-0.2498,0,0,0,0,0,0,0,0,0,0,0,0,0,-0.2609,-0.2639,-0.2575,-0.2569,-0.2568,-0.2539,-0.2539,-0.2538,-0.2537,-0.2538,-0.2539,-0.2539,-0.2502,-0.25,-0.2498,-0.2472,0,0,-0.2492,-0.2491,0,0,0,0,0,0,0,0,-0.2611,-0.2607,-0.257,-0.257,-0.2569,-0.2544,-0.2548,-0.2516,-0.2537,-0.2549,-0.2539,-0.254,-0.2515,-0.2512,-0.2504,-0.247,-0.2469,-0.2492,-0.249,-0.2489,-0.2489,0,0,0,0,0,0,0,-0.2613,-0.2608,-0.2561,-0.257,-0.2569,-0.2568,-0.2564,-0.2542,-0.2529,-0.2548,-0.2548,-0.2544,-0.2514,-0.2506,-0.2503,-0.2468,-0.2492,-0.249,-0.2488,-0.2488,-0.2411,-0.2411,0,0,0,0,0,0,-0.2616,-0.261,-0.2562,-0.256,-0.2592,-0.2566,-0.2562,-0.2551,-0.2529,-0.2526,-0.2543,-0.2544,-0.2509,-0.2505,-0.2501,-0.2469,-0.2489,-0.2487,-0.2486,-0.2412,-0.2411,-0.241,0,0,0,0,0,0,-0.2618,-0.2612,-0.2563,-0.2585,-0.2578,-0.2565,-0.2552,-0.255,-0.2541,-0.2525,-0.2523,-0.2537,-0.2509,-0.2504,-0.2479,-0.2468,-0.2486,-0.2485,-0.2413,-0.2412,-0.2411,-0.2404,0,0,0,0,0,0,-0.262,-0.2613,-0.2603,-0.2584,-0.2577,-0.2542,-0.2551,-0.2549,-0.2538,-0.2538,-0.2519,-0.2516,-0.2509,-0.2483,-0.2477,-0.2465,-0.2483,-0.2414,-0.2412,-0.2411,-0.2405,-0.2403,-0.2401,0,0,0,0,0,-0.2622,-0.2602,-0.2602,-0.2596,-0.2565,-0.2541,-0.2537,-0.253,-0.2537,-0.2526,-0.2516,-0.2517,-0.247,-0.248,-0.2474,-0.2461,-0.2415,-0.2413,-0.2411,-0.2406,-0.2403,-0.2401,0,0,0,0,0,0,-0.2619,-0.2599,-0.2599,-0.2573,-0.2559,-0.2541,-0.2528,-0.2528,-0.2511,-0.2512,-0.2504,-0.25,-0.2475,-0.2465,-0.2477,-0.2435,-0.2443,-0.244,-0.2441,-0.2438,-0.2436,-0.2439,-0.2481,0,0,0,0,0,-0.2615,-0.2598,-0.2582,-0.256,-0.2553,-0.2542,-0.2532,-0.2528,-0.2512,-0.2506,-0.2494,-0.2479,-0.2461,-0.2449,-0.2432,-0.2404,-0.24,-0.2392,-0.239,-0.2389,-0.2386,-0.237,-0.2367,-0.2405,-0.2405,-0.2405,0,0,-0.2607,-0.2594,-0.2584,-0.2559,-0.2548,-0.253,-0.2537,-0.2518,-0.2504,-0.2503,-0.2479,-0.247,-0.2452,-0.2426,-0.2414,-0.2417,-0.2374,-0.2386,-0.2385,-0.2383,-0.2368,-0.2365,-0.2361,-0.2404,-0.2404,-0.2404,0,0,-0.2583,-0.2572,-0.2553,-0.2541,-0.2524,-0.2517,-0.2512,-0.2495,-0.2489,-0.2464,-0.2463,-0.2447,-0.2416,-0.2404,-0.2393,-0.2365,-0.2365,-0.236,-0.2348,-0.2333,-0.233,-0.2327,-0.2317,-0.2313,-0.2357,-0.2357,-0.2357,0,-0.2575,-0.2549,-0.2543,-0.2524,-0.2513,-0.2511,-0.2491,-0.2481,-0.2458,-0.2451,-0.2455,-0.2417,-0.2405,-0.2375,-0.2369,-0.236,-0.2355,-0.2362,-0.2331,-0.2328,-0.2325,-0.2315,-0.2312,-0.2357,-0.2357,-0.2357,-0.2357,0,-0.254,-0.2521,-0.2508,-0.2487,-0.2474,-0.2455,-0.2446,-0.2434,-0.2431,-0.2423,-0.2398,-0.2384,-0.2364,-0.2357,-0.2354,-0.2327,-0.233,-0.2333,-0.2341,-0.2321,-0.2312,-0.2308,-0.2356,-0.2356,-0.2356,-0.2356,0,0,-0.2512,-0.2489,-0.2484,-0.2474,-0.2455,-0.2441,-0.2421,-0.2402,-0.2392,-0.2376,-0.236,-0.2334,-0.2337,-0.2325,-0.232,-0.2307,-0.2286,-0.2312,-0.2311,-0.2307,-0.2255,-0.2252,-0.2248,-0.2286,-0.2285,-0.2284,-0.2256,0,-0.2486,-0.2452,-0.2446,-0.2416,-0.2399,-0.2397,-0.238,-0.2367,-0.2359,-0.2343,-0.2334,-0.2316,-0.2321,-0.2314,-0.2301,-0.2291,-0.2275,-0.2293,-0.2269,-0.2268,-0.2273,-0.2243,-0.224,-0.2214,-0.2252,-0.2252,-0.2251,0,-0.2451,-0.2435,-0.2403,-0.2387,-0.238,-0.2364,-0.2346,-0.2331,-0.2316,-0.2311,-0.2298,-0.2295,-0.2275,-0.2284,-0.2255,-0.2268,-0.2258,-0.2251,-0.225,-0.2247,-0.2258,-0.2239,-0.2206,-0.2202,-0.2245,-0.2246,-0.2246,0,-0.2434,-0.2405,-0.2382,-0.2374,-0.2354,-0.2343,-0.2335,-0.232,-0.2309,-0.2293,-0.2285,-0.2267,-0.2256,-0.2242,-0.2234,-0.2242,-0.2206,-0.2215,-0.2201,-0.2201,-0.2193,-0.2193,-0.2157,-0.2187,-0.2187,-0.2187,-0.2187,0,-0.2405,-0.2385,-0.2374,-0.236,-0.2338,-0.2331,-0.231,-0.2301,-0.2288,-0.2272,-0.227,-0.2255,-0.2245,-0.2229,-0.2223,-0.2199,-0.2195,-0.219,-0.2189,-0.219,-0.2191,-0.2183,-0.2184,-0.2186,-0.2186,-0.2187,-0.2187,0,-0.2381,-0.2373,-0.2348,-0.2332,-0.2327,-0.2312,-0.2297,-0.2284,-0.2276,-0.2256,-0.2251,-0.2239,-0.2219,-0.221,-0.2186,-0.2181,-0.2155,-0.2155,-0.216,-0.216,-0.2146,-0.2147,-0.2103,-0.2097,-0.2132,-0.2131,-0.2131,0,-0.2363,-0.2348,-0.2331,-0.232,-0.2311,-0.2294,-0.2282,-0.2275,-0.2263,-0.2245,-0.2233,-0.2214,-0.2198,-0.2166,-0.2155,-0.2136,-0.2136,-0.2122,-0.2133,-0.2135,-0.2135,-0.2136,-0.2134,-0.2119,-0.2119,-0.2119,-0.2119,0,-0.2332,-0.2329,-0.2313,-0.2295,-0.2282,-0.2267,-0.2253,-0.2244,-0.2235,-0.2222,-0.2202,-0.219,-0.2165,-0.2146,-0.2126,-0.2117,-0.2116,-0.2115,-0.2111,-0.2112,-0.2116,-0.2113,-0.2154,-0.2116,-0.2116,-0.2117,-0.2117,-0.2117,-0.231,-0.2297,-0.2282,-0.2264,-0.2253,-0.224,-0.2226,-0.2217,-0.2201,-0.2181,-0.2178,-0.2156,-0.2141,-0.2115,-0.2105,-0.2088,-0.2091,-0.2085,-0.2084,-0.2082,-0.2081,-0.2119,-0.2085,-0.2085,-0.2085,-0.2085,-0.2085,0,-0.2279,-0.2269,-0.2253,-0.2234,-0.2219,-0.222,-0.2205,-0.2193,-0.2175,-0.2161,-0.2145,-0.2122,-0.2104,-0.2091,-0.2072,-0.2061,-0.206,-0.2056,-0.2056,-0.2054,-0.2079,-0.2085,-0.2057,-0.2057,-0.2057,-0.2057,-0.2057,-0.2057,-0.226,-0.2238,-0.2233,-0.2204,-0.2195,-0.2175,-0.2166,-0.2154,-0.2143,-0.2117,-0.2102,-0.2094,-0.2081,-0.2061,-0.2043,-0.204,-0.2033,-0.2029,-0.2026,-0.2049,-0.2052,-0.2055,-0.206,-0.2027,-0.2027,-0.2001,-0.2001,-0.2001]},{"header":{"parameterUnit":"m.s-1","parameterCategory":1,"la1":30.2991,"la2":30.254,"lo1":-89.0895,"lo2":-89.0444,"dy":0.0017,"dx":0.0017,"nx":28,"ny":28,"refTime":"2023-10-21T09:00:00:Z","depth":0,"parameterNumber":3,"parameterNumberName":"V-component_of_WINDS"},"data":[0,0,0,0,0,0,0,0,0,0,0,0,0,0,0,0,0,0,0,0,0,0,0,0,0,0,0,0,0,0,0,0,0,0,0,0,0,0,0,0,0,0,0,0,0,0,0,0,0,0,0,0,0,0,0,0,0,0,0.4298,0.4298,0,0.4273,0.4273,0.4273,0.4244,0.4243,0.4243,0.4242,0.4215,0.4215,0.4214,0,0,0,0,0,0,0,0,0,0,0,0,0,0.4321,0.432,0.4298,0.4298,0.4298,0.4273,0.4273,0.4272,0.4244,0.4243,0.4243,0.4242,0.4215,0.4215,0.4214,0,0,0,0,0,0,0,0,0,0,0,0,0,0.4305,0.432,0.4298,0.428,0.4279,0.4273,0.4273,0.4272,0.4244,0.4243,0.4243,0.4242,0.4215,0.4215,0.4214,0.4224,0,0,0.4213,0.4213,0,0,0,0,0,0,0,0,0.4306,0.4304,0.4283,0.4282,0.428,0.4261,0.4271,0.4256,0.4244,0.4257,0.4242,0.4242,0.4231,0.4229,0.4226,0.4223,0.4222,0.4213,0.4212,0.4212,0.4212,0,0,0,0,0,0,0,0.4307,0.4305,0.4288,0.4283,0.4281,0.4273,0.427,0.4268,0.4248,0.4256,0.4254,0.4251,0.423,0.4226,0.4225,0.4221,0.4213,0.4212,0.4212,0.4212,0.4226,0.4227,0,0,0,0,0,0,0.4311,0.4306,0.4289,0.4288,0.4291,0.4273,0.427,0.4268,0.4248,0.4244,0.4252,0.425,0.4227,0.4225,0.4224,0.4234,0.4212,0.4212,0.4211,0.4225,0.4226,0.4227,0,0,0,0,0,0,0.4311,0.431,0.429,0.4296,0.4293,0.4274,0.4271,0.4267,0.4264,0.4245,0.4241,0.4252,0.4227,0.4224,0.4224,0.4233,0.4212,0.4211,0.4224,0.4225,0.4226,0.4256,0,0,0,0,0,0,0.4312,0.431,0.4314,0.4297,0.4293,0.4292,0.4272,0.4267,0.4263,0.4261,0.4244,0.424,0.4226,0.4225,0.4224,0.4232,0.4211,0.4224,0.4225,0.4226,0.4254,0.4258,0.4261,0,0,0,0,0,0.4313,0.4323,0.4314,0.4312,0.4297,0.4292,0.429,0.4274,0.4264,0.4268,0.4255,0.4241,0.4232,0.4226,0.4224,0.4232,0.4223,0.4225,0.4226,0.4253,0.4257,0.4261,0,0,0,0,0,0,0.4341,0.432,0.431,0.4315,0.4306,0.4288,0.4292,0.4279,0.4272,0.427,0.425,0.4246,0.4249,0.424,0.4233,0.4241,0.4226,0.4227,0.4246,0.425,0.4254,0.4256,0.421,0,0,0,0,0,0.4347,0.4346,0.4327,0.4333,0.4329,0.4311,0.4308,0.4297,0.4286,0.4282,0.427,0.426,0.4255,0.4252,0.4246,0.4252,0.4249,0.4257,0.4261,0.4263,0.4265,0.4268,0.4272,0.4232,0.4232,0.4232,0,0,0.4361,0.4349,0.4349,0.4338,0.433,0.4328,0.4308,0.4307,0.4306,0.4282,0.4282,0.4272,0.426,0.4263,0.4264,0.4256,0.4275,0.4265,0.4268,0.4268,0.427,0.4274,0.4277,0.4233,0.4233,0.4232,0,0,0.4385,0.4376,0.438,0.4372,0.436,0.4348,0.4349,0.4333,0.4327,0.4326,0.4308,0.4306,0.4298,0.429,0.4285,0.4307,0.4293,0.4305,0.4324,0.4327,0.433,0.4333,0.4341,0.4345,0.4307,0.4307,0.4307,0,0.4404,0.4401,0.4384,0.4384,0.438,0.4359,0.4363,0.4356,0.4342,0.434,0.4331,0.4321,0.4311,0.4312,0.4318,0.4314,0.4315,0.4307,0.4331,0.4334,0.4336,0.4344,0.4347,0.4308,0.4308,0.4308,0.4308,0,0.4425,0.4423,0.4428,0.4416,0.4412,0.4414,0.4397,0.4395,0.4384,0.4373,0.4373,0.436,0.4352,0.4351,0.434,0.4352,0.4347,0.4335,0.432,0.4342,0.4349,0.4352,0.4311,0.431,0.431,0.4309,0,0,0.4466,0.4445,0.4447,0.4442,0.4427,0.4425,0.4426,0.4419,0.4418,0.4409,0.441,0.4404,0.4393,0.4387,0.4374,0.4377,0.4396,0.4365,0.4364,0.4372,0.4409,0.4419,0.4423,0.4387,0.4388,0.4388,0.4411,0,0.4488,0.449,0.4474,0.448,0.4479,0.4459,0.446,0.445,0.444,0.4437,0.4426,0.4422,0.4407,0.4404,0.4406,0.4394,0.4404,0.4392,0.4388,0.4388,0.4393,0.4427,0.4437,0.4459,0.4413,0.4414,0.4414,0,0.4515,0.4508,0.4514,0.45,0.4498,0.45,0.4492,0.4489,0.4479,0.4471,0.4465,0.4451,0.4451,0.4436,0.4436,0.4428,0.4425,0.4419,0.442,0.4419,0.4403,0.4428,0.4466,0.4469,0.4418,0.4418,0.4418,0,0.4545,0.4538,0.4541,0.4537,0.452,0.4521,0.4514,0.4503,0.4499,0.4492,0.449,0.4483,0.4479,0.4474,0.4458,0.4449,0.446,0.4444,0.4454,0.4455,0.4458,0.4458,0.4496,0.4455,0.4455,0.4455,0.4455,0,0.4572,0.4577,0.4554,0.4556,0.4561,0.4543,0.4547,0.4538,0.4528,0.4528,0.451,0.4509,0.4488,0.4486,0.4473,0.4476,0.4474,0.4468,0.4464,0.447,0.4471,0.4468,0.4467,0.4456,0.4455,0.4455,0.4455,0,0.4608,0.4593,0.4595,0.4578,0.4574,0.4579,0.4565,0.4565,0.4554,0.4554,0.4553,0.4535,0.4531,0.4515,0.4507,0.4498,0.4505,0.4498,0.4509,0.4507,0.4519,0.4518,0.4558,0.4562,0.4517,0.4518,0.4518,0,0.4626,0.463,0.4614,0.4613,0.4607,0.4604,0.4601,0.4583,0.4581,0.4569,0.4572,0.4566,0.4561,0.4556,0.4542,0.4536,0.4529,0.4544,0.4528,0.4534,0.4531,0.4531,0.4532,0.4547,0.4548,0.4548,0.4549,0,0.4661,0.4654,0.465,0.4644,0.4641,0.4635,0.4628,0.4628,0.4608,0.4606,0.4603,0.4599,0.4591,0.4586,0.4578,0.457,0.4556,0.4553,0.4556,0.4562,0.4568,0.4566,0.4519,0.4553,0.4552,0.4552,0.4552,0.4552,0.469,0.4692,0.4681,0.4678,0.4671,0.4665,0.4666,0.4655,0.4651,0.4644,0.4633,0.4631,0.4621,0.4608,0.4601,0.4599,0.4591,0.4594,0.4595,0.4597,0.46,0.4568,0.4598,0.4597,0.4597,0.4597,0.4597,0,0.4724,0.4717,0.4714,0.4705,0.4703,0.469,0.4682,0.4681,0.4679,0.467,0.4666,0.4662,0.4657,0.4643,0.4637,0.4638,0.4632,0.4638,0.4638,0.4636,0.4607,0.4606,0.4643,0.4643,0.4643,0.4643,0.4643,0.4643,0.4742,0.4746,0.4737,0.4737,0.4729,0.4727,0.4724,0.4718,0.4711,0.4708,0.4704,0.4695,0.4685,0.4678,0.4673,0.4669,0.4668,0.4676,0.467,0.4643,0.4638,0.4634,0.4633,0.4675,0.4676,0.47,0.47,0.47]}]]